Flag for Canada Weather past 2 weeks in Richmond, British Columbia, Canada

Now
73 °F

Sunny.


Feels Like: 77 °F
Forecast: 60 / 75 °F
Wind: 8 mph from Southwest

Location: Vancouver International Air-Port

Current Time: Jul 29, 2015 at 3:32:45 PM

Latest Report: Jul 29, 2015 at 2:00 PM


Visibility: 30 mi

Pressure: 30.18 "Hg

Humidity: 57%

Dew point: 57 °F

Location of RichmondLocation

Historic Weather in Richmond — Graph

°F

Richmond temperature yesterday

Maximum temperature yesterday: 72 °F (at 4:00 PM)
Minimum temperature yesterday: 57 °F (at 5:00 AM)
Average temperature yesterday: 66 °F

Past Weeks' High & Low Weather Summary

 TemperatureHumidityPressure
High81 °F (Jul 19, 6:00 PM)94% (Jul 24, 10:00 AM)30.28 "Hg (Jul 24, 10:00 AM)
Low55 °F (Jul 27, 3:00 AM)46% (Jul 16, 7:00 PM)29.85 "Hg (Jul 22, 8:00 PM)
Average65 °F72%30.03 "Hg
* Reported Jul 14 2:00 PM — Jul 29 2:00 PM, Richmond, Weather by CustomWeather, © 2015

Note: Actual official high and low records may vary slightly from our data, if they occured in-between our weather recording intervals... More about our weather records

Advertising

Richmond weather history for previous 24 hours

 ConditionsComfort  
Time TempWeatherWind HumidityBarometerVisibility
2:00 PM
Wed, Jul 29
73 °FSunny.8 mph57%30.18 "Hg30 mi
1:00 PM72 °FSunny.9 mph61%30.18 "Hg30 mi
12:00 PM72 °FPassing clouds.9 mph61%30.19 "Hg30 mi
11:00 AM70 °FPassing clouds.8 mph60%30.20 "Hg30 mi
10:00 AM68 °FPassing clouds.7 mph69%30.21 "Hg30 mi
9:00 AM68 °FPartly sunny.3 mph73%30.22 "Hg30 mi
8:00 AM66 °FBroken clouds.2 mph73%30.22 "Hg30 mi
7:00 AM63 °FOvercast.No wind83%30.21 "Hg30 mi
6:00 AM59 °FPartly cloudy.No wind88%30.20 "Hg30 mi
5:00 AM61 °FPartly cloudy.3 mph88%30.19 "Hg30 mi
4:00 AM61 °FPassing clouds.3 mph88%30.19 "Hg15 mi
3:00 AM61 °FPassing clouds.3 mph83%30.18 "Hg15 mi
2:00 AM61 °FPassing clouds.8 mph83%30.19 "Hg20 mi
1:00 AM63 °FPassing clouds.6 mph77%30.19 "Hg20 mi
12:00 AM64 °FPassing clouds.5 mph73%30.19 "Hg20 mi
11:00 PM
Tue, Jul 28
64 °FPassing clouds.8 mph78%30.18 "Hg20 mi
10:00 PM68 °FPassing clouds.3 mph69%30.18 "Hg20 mi
9:00 PM68 °FPassing clouds.2 mph60%30.17 "Hg30 mi
8:00 PM72 °FPassing clouds.3 mph53%30.17 "Hg30 mi
7:00 PM72 °FPassing clouds.3 mph53%30.18 "Hg30 mi
6:00 PM72 °FPassing clouds.7 mph57%30.19 "Hg30 mi
5:00 PM72 °FScattered clouds.7 mph61%30.19 "Hg30 mi
4:00 PM72 °FPartly sunny.9 mph61%30.21 "Hg30 mi
3:00 PM70 °FScattered clouds.8 mph73%30.23 "Hg30 mi
Weather by CustomWeather, © 2015

See weather overviewHow to use our weather pages